Location: 3 Angels Observatory
(30.5437°N, 88.5068°W)
Time: 00:01:39
(UTC-05:00)

Oscar 19 - Visible Passes

Search period start: 04 July 2015 00:00
Search period end: 14 July 2015 00:00
Orbit: 773 x 792 km, 98.5° (Epoch: 03 July)

Date Brightness Start Highest point End Pass type
(mag) Time Alt. Az. Time Alt. Az. Time Alt. Az.
04 Jul 12.9 01:28:59 10° NE 01:30:48 17° ENE 01:30:48 17° ENE visible
04 Jul 11.9 03:07:45 10° N 03:11:22 30° NW 03:11:22 30° NW visible
05 Jul 11.5 02:35:36 10° N 02:39:14 46° N 02:39:14 46° N visible
06 Jul 12.0 02:03:58 10° NNE 02:07:06 35° NE 02:07:06 35° NE visible
06 Jul 12.7 03:45:19 10° NW 03:47:40 14° WNW 03:47:40 14° WNW visible
07 Jul 12.8 01:33:00 10° NE 01:34:58 19° ENE 01:34:58 19° ENE visible
07 Jul 12.0 03:12:04 10° NNW 03:15:32 27° NW 03:15:32 27° NW visible
08 Jul 11.5 02:39:49 10° N 02:43:24 43° NNW 02:43:24 43° NNW visible
09 Jul 12.0 02:08:07 10° NNE 02:11:16 36° NE 02:11:16 36° NE visible
09 Jul 12.8 03:49:55 10° NW 03:51:49 12° WNW 03:51:49 12° WNW visible
10 Jul 12.7 01:37:03 10° NE 01:39:07 20° ENE 01:39:07 20° ENE visible
10 Jul 12.1 03:16:22 10° NNW 03:19:41 25° NW 03:19:41 25° NW visible
11 Jul 11.6 02:44:02 10° N 02:47:33 40° NNW 02:47:33 40° NNW visible
12 Jul 11.9 02:12:16 10° NNE 02:15:24 37° NNE 02:15:24 37° NNE visible
12 Jul 12.8 03:54:42 10° NW 03:55:58 11° WNW 03:55:58 11° WNW visible
13 Jul 12.7 01:41:06 10° NE 01:43:15 21° NE 01:43:15 21° NE visible
13 Jul 12.2 03:20:42 10° NNW 03:23:49 23° NW 03:23:49 23° NW visible
